Location: Crab Orchard
(37.7292°N, 88.8042°W)
Time: 04:32:37
(UTC+00:00)

YAOGAN 1 - Pass Details

Date: 08 December 2019
Orbit: 619 x 621 km, 98.0° (Epoch: 28 January)

Event Time Altitude Azimuth Distance (km) Brightness Sun altitude
Rises 23:25:59 0° 128° (SE) 2,885 5.7 -9.7°
Reaches altitude 10° 23:28:43 10° 110° (ESE) 1,985 4.7 -10.3°
Maximum altitude 23:31:39 18° 67° (ENE) 1,528 3.9 -10.8°
Drops below altitude 10° 23:34:35 10° 24° (NNE) 1,994 4.8 -11.3°
Sets 23:37:20 0° 6° (N) 2,905 5.7 -11.9°
